Tracking 29892 objects as of 21-Nov-2024
HD Live streaming from Space Station
objects crossing your sky now

NOAA 16 DEB

Track NOAA 16 DEB now!
10-day predictions


NORAD ID: 41292
Int'l Code: 2000-055GU
Perigee: 719.8 km
Apogee: 777.9 km
Inclination: 99.0 °
Period: 99.6 minutes
Semi major axis: 7119 km
RCS: Unknown
Launch date: September 21, 2000
Source: United States (US)
Launch site: AIR FORCE WESTERN TEST RANGE (AFWTR)

Note: This is SATELLITE DEBRIS
Your satellite tracking list
Your tracking list is empty




NASA's NSSDC Master Catalog

Two Line Element Set (TLE):
1 41292U 00055GU  24324.34343296  .00012153  00000-0  34494-2 0  9995
2 41292  98.9956 149.5952 0040772 317.6908  42.1138 14.45093694464351
Source of the keplerian elements: AFSPC